Location: *
(51.5000°N, 0.1100°W)
Time: 05:00:28
(UTC+00:00)

IDEFIX/ARIANE 42P - Pass Details

Date: 09 August 2024
Orbit: 782 x 799 km, 98.5° (Epoch: 08 September)

Event Time Altitude Azimuth Distance (km) Brightness Sun altitude
Rises 03:08:18 0° 8° (N) 3,284 6.7 -12.0°
Reaches altitude 10° 03:10:53 10° 358° (N) 2,352 5.7 -11.7°
Maximum altitude 03:15:15 29° 300° (WNW) 1,425 3.8 -11.2°
Enters shadow 03:19:04 13° 246° (WSW) 2,160 4.2 -10.8°
